This is the latest recevied weather packets stored in our database for station/object IW2HNF-3. If no packets are shown the sender has not sent any weather packets the latest 10 day(s).
| Time | Temp. | Humidity | Pressure | Rain* | Wind** | Luminosity | Snow |
|---|---|---|---|---|---|---|---|
| 1778019060 | 12.78° C | 97% | 1010.8 hPa | 0 mm | - | - | - |
| 1778018869 | 12.78° C | 97% | 1010.9 hPa | 0 mm | - | - | - |
| 1778017860 | 12.78° C | 97% | 1010.9 hPa | 0 mm | - | - | - |
| 1778017238 | 12.78° C | 97% | 1011.1 hPa | 0 mm | - | - | - |
| 1778016662 | 12.78° C | 97% | 1011.3 hPa | 0 mm | - | - | - |
| 1778016037 | 12.78° C | 97% | 1011.4 hPa | 0 mm | - | - | - |
| 1778015461 | 12.78° C | 97% | 1011.4 hPa | 0.25 mm | - | - | - |
| 1778014837 | 12.78° C | 97% | 1011.4 hPa | 0.51 mm | - | - | - |
| 1778014261 | 12.78° C | 97% | 1011.5 hPa | 0.51 mm | - | - | - |
| 1778013637 | 12.78° C | 97% | 1011.6 hPa | 1.02 mm | - | - | - |
| 1778013061 | 12.78° C | 97% | 1011.6 hPa | 1.02 mm | - | - | - |
| 1778012437 | 12.78° C | 97% | 1011.6 hPa | 1.02 mm | - | - | - |
| 1778011861 | 12.78° C | 97% | 1011.6 hPa | 0.51 mm | - | - | - |
| 1778011669 | 12.78° C | 97% | 1011.5 hPa | 0.25 mm | - | - | - |
| 1778010661 | 12.78° C | 97% | 1011.4 hPa | 0.25 mm | - | - | - |
| 1778010037 | 12.78° C | 97% | 1011.4 hPa | 0 mm | - | - | - |
| 1778009461 | 12.78° C | 97% | 1011.3 hPa | 0 mm | - | - | - |
| 1778008838 | 12.78° C | 97% | 1011.3 hPa | 0 mm | - | - | - |
| 1778008264 | 12.78° C | 97% | 1011.3 hPa | 0 mm | - | - | - |
| 1778007062 | 12.78° C | 97% | 1010.9 hPa | 0 mm | - | - | - |
| 1778006437 | 12.78° C | 97% | 1011 hPa | 0 mm | - | - | - |
| 1778005861 | 12.78° C | 97% | 1011 hPa | 0 mm | - | - | - |
| 1778005237 | 12.78° C | 97% | 1011 hPa | 0 mm | - | - | - |
| 1778004661 | 12.78° C | 97% | 1011 hPa | 0.25 mm | - | - | - |
| 1778004470 | 12.78° C | 97% | 1011 hPa | 0.51 mm | - | - | - |
* Rain latest hour (hover to see other rain measurements)
** Current wind speed in m/s (hover to see current wind gust speed)